STARLINK-1707, 46359

Orbit data source: Space-Track

STARLINK-1707, 46359 is a payload satellite owned by SpaceX/Seattle (US) in LEO that was launched on Thu, 03 Sep 2020 UTC via an FALCON 9 launch vehicle from the Air Force Eastern Test Range (AFETR). Payload-class satellites include a variety of spacecraft equipped with specific instruments for various scientific and technological missions. These include communications satellites like Starlink; space stations such as the ISS; scientific satellites like the Hubble; Earth observation satellites from companies like Planet Labs, Umbra, and HawkEye 360; GPS; miniature CubeSats for education and research; and military/defense satellites.

Loading next visibility...
Identifier
46359, 2020-062AL
Orbit
LEO
Last TLE update
11 hours ago
Origin
Manufacturer
SpaceX/Seattle
Mission
Partially operational Commercial Communications
Bus & Motor
STARLINK, Unknown motor
Mass
260 kg wet, ~248 kg dry
Launch date (UTC)
2020-09-03 (5 years ago)
Launch vehicle
FALCON 9
Launch site
Air Force Eastern Test Range (AFETR)
Object type
Payload
Rocket body
Debris
Shape & HBR
Box + 1 Pan, 4.4 m
Radar Cross Section
13.562 m², Large (>1 m²)

Expand to show TLE details & history

TLE from 11 hours ago
0 STARLINK-1707
1 46359U 20062AL  25199.55192916  .00019382  00000-0  92085-3 0  9991
2 46359  53.0544 296.5960 0001915 349.6296  10.4659 15.19248338269738
Epoch: 2025-07-18T13:14Z
TLE epoch observation values (Epoch: 2025-07-18T13:14:46.679Z)
Latitude
-0°
Longitude
161.29975°
Altitude
507.698 km
Speed
7.612 km/s
True Right ascension
19h 46m 23s
True Declination
0° 00' 00"
Sunlit
Object was in full shadow at epoch
Visualization orbit readout
Latitude
-51.62219°
Longitude
50.08182°
Altitude
526.005 km
Speed
7.6 km/s
Apparent Right ascension
02h 29m 16s
Apparent Declination
-85° 47' 40"
Sunlit
Object is in daylight
Visualization observer readout
Local Sidereal Time
12:38:44
Azimuth
182.693° SSW
Elevation
-43.612°
Doppler factor
1
Orbital elements
Apogee altitude
509.702 km
Perigee altitude
507.064 km
Semi-major axis
6,886.52 km
Eccentricity
0.00019
Inclination
53.0544°
RAAN
296.596°
Arg. of periapsis
349.6296°
True anomaly
10.46989°
Mean anomaly
10.4659°
Eccentric anomaly
10.46789°
Mean motion
3.7979 °/min
Orbital period
94.79 mins
BSTAR
0.00092085
Loading maneuver chart data...
Loading SW <> Apogee altitude chart data...
Loading historical data...
Loading historical data...
Loading historical data...
Loading historical data...
Loading historical data...
Loading historical data...
Loading historical data...
|